�������l�o���
Date,Time,MP-1(��Sv/h),MP-2(��Sv/h),MP-3(��Sv/h),MP-4(��Sv/h),MP-5(��Sv/h),MP-6(��Sv/h),MP-7(��Sv/h),MP-8(��Sv/h),����,����(m/s),���J
2015/03/18,00:00,1.920,3.457,3.793,3.403,3.615,1.080,1.793,1.735,-,CALM,��
2015/03/18,00:10,1.920,3.455,3.793,3.398,3.618,1.078,1.795,1.733,�쓌,0.6,��
2015/03/18,00:20,1.920,3.452,3.793,3.400,3.613,1.077,1.795,1.738,��,0.5,��
2015/03/18,00:30,1.915,3.453,3.792,3.402,3.620,1.078,1.797,1.738,-,CALM,��
2015/03/18,00:40,1.918,3.455,3.797,3.398,3.617,1.078,1.795,1.735,���k��,0.8,��
2015/03/18,00:50,1.917,3.455,3.795,3.403,3.615,1.080,1.795,1.733,�k��,1.3,��
2015/03/18,01:00,1.918,3.452,3.795,3.402,3.615,1.078,1.793,1.735,�k�k��,1.6,��
2015/03/18,01:10,1.920,3.455,3.792,3.405,3.612,1.075,1.793,1.735,�k�k��,1.0,��
2015/03/18,01:20,1.917,3.455,3.795,3.405,3.612,1.078,1.793,1.735,�k,2.7,��
2015/03/18,01:30,1.920,3.455,3.795,3.400,3.612,1.078,1.795,1.735,�k�k��,1.0,��
2015/03/18,01:40,1.918,3.455,3.797,3.402,3.613,1.077,1.793,1.737,�k�k��,1.7,��
2015/03/18,01:50,1.917,3.460,3.798,3.402,3.613,1.077,1.793,1.735,�k��,1.6,��
2015/03/18,02:00,1.920,3.457,3.797,3.402,3.617,1.077,1.793,1.737,�k�k��,1.0,��
2015/03/18,02:10,1.918,3.453,3.795,3.403,3.615,1.077,1.792,1.737,�k�k��,1.0,��
2015/03/18,02:20,1.920,3.455,3.797,3.402,3.618,1.080,1.793,1.737,-,CALM,��
2015/03/18,02:30,1.920,3.455,3.795,3.405,3.615,1.077,1.797,1.735,-,CALM,��
2015/03/18,02:40,1.923,3.453,3.795,3.402,3.617,1.077,1.795,1.733,�k�k��,0.5,��
2015/03/18,02:50,1.920,3.457,3.793,3.407,3.618,1.078,1.795,1.733,�k�k��,1.2,��
2015/03/18,03:00,1.918,3.457,3.792,3.403,3.617,1.078,1.793,1.733,�k,3.0,��
2015/03/18,03:10,1.918,3.453,3.795,3.403,3.615,1.078,1.795,1.735,�k�k��,3.4,��
2015/03/18,03:20,1.920,3.455,3.798,3.405,3.618,1.080,1.793,1.733,�k,4.3,��
2015/03/18,03:30,1.915,3.455,3.797,3.403,3.617,1.078,1.798,1.735,�k,5.1,��
2015/03/18,03:40,1.913,3.455,3.790,3.398,3.615,1.077,1.793,1.733,�k,6.3,��
2015/03/18,03:50,1.920,3.455,3.795,3.397,3.618,1.075,1.792,1.735,�k,6.4,��
2015/03/18,04:00,1.917,3.457,3.792,3.403,3.618,1.077,1.792,1.732,�k�k��,6.0,��
2015/03/18,04:10,1.918,3.450,3.790,3.407,3.617,1.077,1.793,1.732,�k,4.9,��
2015/03/18,04:20,1.915,3.453,3.790,3.405,3.613,1.077,1.795,1.735,�k,4.3,��
2015/03/18,04:30,1.917,3.457,3.793,3.402,3.613,1.077,1.793,1.732,�k,3.9,��
2015/03/18,04:40,1.918,3.455,3.790,3.402,3.618,1.075,1.792,1.733,�k,4.1,��
2015/03/18,04:50,1.918,3.455,3.790,3.403,3.613,1.075,1.790,1.733,�k�k��,4.4,��
2015/03/18,05:00,1.917,3.457,3.792,3.398,3.615,1.078,1.790,1.732,�k,4.5,��
2015/03/18,05:10,1.913,3.453,3.793,3.400,3.617,1.075,1.792,1.732,�k�k��,4.9,��
2015/03/18,05:20,1.915,3.457,3.788,3.403,3.613,1.073,1.792,1.732,�k,4.2,��
2015/03/18,05:30,1.920,3.453,3.790,3.402,3.612,1.077,1.788,1.737,�k,4.3,��
2015/03/18,05:40,1.917,3.448,3.795,3.403,3.610,1.073,1.790,1.737,�k,3.8,��
2015/03/18,05:50,1.917,3.452,3.790,3.398,3.608,1.073,1.792,1.732,�k,3.5,��
2015/03/18,06:00,1.922,3.455,3.790,3.398,3.608,1.072,1.790,1.733,�k,2.5,��
2015/03/18,06:10,1.917,3.452,3.792,3.398,3.610,1.073,1.790,1.733,�k,2.7,��
2015/03/18,06:20,1.917,3.452,3.795,3.400,3.612,1.070,1.790,1.733,�k�k��,1.9,��
2015/03/18,06:30,1.913,3.455,3.797,3.400,3.610,1.067,1.790,1.733,�k,1.6,��
2015/03/18,06:40,1.922,3.452,3.797,3.402,3.610,1.062,1.792,1.735,�k�k��,1.3,��
2015/03/18,06:50,1.918,3.452,3.792,3.400,3.608,1.063,1.793,1.735,���k��,0.6,��
2015/03/18,07:00,1.913,3.453,3.797,3.398,3.608,1.062,1.790,1.733,���k��,0.5,��
2015/03/18,07:10,1.913,3.452,3.793,3.400,3.610,1.063,1.790,1.733,��,0.5,��
2015/03/18,07:20,1.915,3.457,3.795,3.403,3.612,1.060,1.795,1.735,��,1.2,��
2015/03/18,07:30,1.917,3.457,3.802,3.400,3.610,1.057,1.793,1.733,�k�k��,1.8,��
2015/03/18,07:40,1.920,3.458,3.798,3.405,3.613,1.053,1.790,1.735,�k��,2.5,��
2015/03/18,07:50,1.918,3.458,3.802,3.403,3.618,1.052,1.792,1.735,�k�k��,3.3,��
2015/03/18,08:00,1.917,3.462,3.802,3.403,3.622,1.050,1.792,1.735,�k�k��,3.4,��
2015/03/18,08:10,1.917,3.462,3.805,3.408,3.625,1.052,1.795,1.733,�k��,3.6,��
2015/03/18,08:20,1.918,3.460,3.808,3.405,3.623,1.050,1.795,1.737,�k��,3.8,��
2015/03/18,08:30,1.920,3.463,3.802,3.408,3.628,1.050,1.795,1.735,�k��,3.8,��
2015/03/18,08:40,1.922,3.465,3.802,3.407,3.623,1.048,1.798,1.735,�k�k��,4.3,��
2015/03/18,08:50,1.917,3.467,3.805,3.413,3.630,1.048,1.793,1.738,�k�k��,3.3,��
2015/03/18,09:00,1.920,3.470,3.810,3.410,3.625,1.052,1.793,1.737,�k�k��,3.2,��
2015/03/18,09:10,1.923,3.468,3.810,3.412,3.627,1.055,1.795,1.735,�k�k��,2.5,��
2015/03/18,09:20,1.922,3.470,3.807,3.415,-,1.053,1.795,1.738,�k�k��,1.9,��
2015/03/18,09:30,1.918,3.468,3.815,3.412,-,1.050,1.795,1.742,�k��,0.7,��
2015/03/18,09:40,1.922,3.472,3.813,3.420,-,1.052,1.798,1.738,�쓌,0.6,��
2015/03/18,09:50,1.920,3.462,3.812,3.415,-,1.050,1.797,1.740,��쓌,0.7,��
2015/03/18,10:00,1.922,3.467,3.813,3.413,-,1.047,1.797,1.737,��쓌,0.6,��
2015/03/18,10:10,1.920,3.472,3.817,3.413,-,1.047,1.800,1.735,�쓌,1.0,��
2015/03/18,10:20,1.923,3.470,3.815,3.417,-,1.048,1.797,1.737,��,1.9,��
2015/03/18,10:30,1.922,3.472,3.817,3.415,3.620,1.050,1.797,1.738,���쓌,2.3,��
2015/03/18,10:40,1.920,3.473,3.812,3.415,3.613,1.050,1.797,1.738,���쓌,4.0,��
2015/03/18,10:50,1.922,3.475,3.817,3.415,3.623,1.047,1.800,1.738,�쓌,3.4,��
2015/03/18,11:00,1.922,3.477,3.820,3.417,3.618,1.050,1.798,1.740,���쓌,4.0,��
2015/03/18,11:10,1.923,3.475,3.818,3.413,3.612,1.053,1.800,1.738,���쓌,3.8,��
2015/03/18,11:20,1.922,3.473,3.817,3.420,3.615,1.053,1.800,1.737,���쓌,3.0,��
2015/03/18,11:30,1.922,3.475,3.815,3.417,3.623,1.055,1.800,1.738,�쓌,3.3,��
2015/03/18,11:40,1.927,3.475,3.820,3.423,3.630,1.055,1.797,1.738,���쓌,2.9,��
2015/03/18,11:50,1.927,3.478,3.820,3.423,3.628,1.053,1.797,1.740,�쓌,3.3,��
2015/03/18,12:00,1.922,3.480,3.818,3.423,3.630,1.053,1.798,1.740,�쓌,3.1,��
2015/03/18,12:10,1.927,3.480,3.820,3.422,3.632,1.052,1.800,1.738,���쓌,3.1,��
2015/03/18,12:20,1.923,3.478,3.825,3.427,3.643,1.052,1.800,1.742,�쓌,2.9,��
2015/03/18,12:30,1.925,3.475,3.818,3.420,3.642,1.057,1.800,1.743,�쓌,2.6,��
2015/03/18,12:40,1.925,3.477,3.823,3.422,3.643,1.058,1.798,1.740,�쓌,2.8,��
2015/03/18,12:50,1.923,3.477,3.823,3.422,3.643,1.053,1.802,1.738,��쓌,2.6,��
2015/03/18,13:00,1.923,3.480,3.823,3.422,3.648,1.053,1.800,1.738,��쓌,2.5,��
2015/03/18,13:10,1.927,3.480,3.825,3.427,3.645,1.058,1.800,1.740,�쓌,2.1,��
2015/03/18,13:20,1.923,3.475,3.820,3.427,3.647,1.060,1.800,1.740,�쓌,2.5,��
2015/03/18,13:30,1.923,3.487,3.823,3.427,3.642,1.062,1.798,1.743,���쓌,2.8,��
2015/03/18,13:40,1.923,3.485,3.823,3.425,-,1.060,1.800,1.738,��쓌,2.6,��
2015/03/18,13:50,1.925,3.482,3.827,3.428,-,1.060,1.800,1.738,��쓌,2.9,��
2015/03/18,14:00,1.927,3.482,3.825,3.425,-,1.060,1.802,1.737,��쓌,3.8,��
2015/03/18,14:10,1.923,3.480,3.823,3.423,-,1.062,1.797,1.738,��쓌,2.5,��
2015/03/18,14:20,1.927,3.478,3.827,3.425,-,1.062,1.797,1.740,�쓌,2.4,��
2015/03/18,14:30,1.928,3.482,3.825,3.428,-,1.063,1.798,1.737,�쓌,2.3,��
2015/03/18,14:40,1.927,3.485,3.825,3.425,-,1.058,1.800,1.740,�쓌,2.4,��
2015/03/18,14:50,1.925,3.487,3.827,3.425,-,1.062,1.797,1.738,���쓌,2.5,��
2015/03/18,15:00,1.923,3.488,3.825,3.427,-,1.062,1.798,1.737,�쓌,2.4,��
2015/03/18,15:10,1.923,3.485,3.827,3.423,-,1.065,1.798,1.738,���쓌,2.3,��
2015/03/18,15:20,1.925,3.483,3.827,3.422,-,1.063,1.797,1.740,��,2.7,��
2015/03/18,15:30,1.923,3.480,3.827,3.427,3.643,1.065,1.795,1.740,���쓌,1.5,��
2015/03/18,15:40,1.923,3.482,3.823,3.425,3.643,1.072,1.795,1.738,���k��,1.4,��
2015/03/18,15:50,1.925,3.478,3.827,3.427,3.647,1.073,1.795,1.740,���k��,1.9,��
2015/03/18,16:00,1.922,3.482,3.827,3.425,3.643,1.068,1.795,1.737,���k��,1.9,��
2015/03/18,16:10,1.923,3.477,3.825,3.425,3.642,1.072,1.792,1.740,�k��,1.7,��
2015/03/18,16:20,1.925,3.480,3.825,3.422,3.645,1.072,1.795,1.742,�k��,2.6,��
2015/03/18,16:30,1.923,3.483,3.823,3.425,3.645,1.073,1.797,1.737,�k��,2.6,��
2015/03/18,16:40,1.925,3.480,3.828,3.427,3.645,1.073,1.800,1.740,�k��,1.4,��
2015/03/18,16:50,1.923,3.482,3.825,3.425,3.647,1.073,1.798,1.738,�k��,2.0,��
2015/03/18,17:00,1.925,3.480,3.827,3.427,3.647,1.072,1.795,1.738,�k��,1.9,��
2015/03/18,17:10,1.922,3.480,3.828,3.425,3.645,1.075,1.797,1.740,�k��,1.5,��
2015/03/18,17:20,1.922,3.478,3.823,3.427,3.643,1.073,1.795,1.738,�k��,2.2,��
2015/03/18,17:30,1.922,3.478,3.820,3.422,3.642,1.072,1.795,1.738,�k��,2.3,��
2015/03/18,17:40,1.923,3.482,3.818,3.420,3.643,1.072,1.795,1.737,�k��,2.8,��
2015/03/18,17:50,1.922,3.477,3.820,3.427,3.642,1.073,1.793,1.737,�k��,2.6,��
2015/03/18,18:00,1.922,3.477,3.820,3.420,3.642,1.072,1.795,1.738,���k��,3.2,��
2015/03/18,18:10,1.918,3.478,3.817,3.427,3.642,1.073,1.798,1.733,���k��,2.8,��
2015/03/18,18:20,1.920,3.477,3.817,3.420,3.642,1.072,1.793,1.733,�k��,2.8,��
2015/03/18,18:30,1.920,3.475,3.818,3.425,3.643,1.073,1.793,1.733,�k��,2.7,��
2015/03/18,18:40,1.922,3.472,3.817,3.423,3.642,1.072,1.797,1.735,�k�k��,2.6,��
2015/03/18,18:50,1.920,3.475,3.818,3.425,3.642,1.073,1.793,1.740,�k,2.6,��
2015/03/18,19:00,1.923,3.473,3.817,3.422,3.643,1.077,1.793,1.737,�k�k��,2.3,��
2015/03/18,19:10,1.922,3.477,3.817,3.425,3.643,1.075,1.797,1.738,�k,1.8,��
2015/03/18,19:20,1.923,3.477,3.813,3.422,3.640,1.073,1.797,1.737,�k,1.7,��
2015/03/18,19:30,1.923,3.478,3.815,3.420,3.640,1.073,1.793,1.738,�k�k��,1.9,��
2015/03/18,19:40,1.922,3.478,3.815,3.423,3.640,1.073,1.795,1.738,�k�k��,1.3,��
2015/03/18,19:50,1.920,3.475,3.813,3.423,3.638,1.073,1.797,1.735,���k��,1.7,��
2015/03/18,20:00,1.922,3.472,3.813,3.422,3.640,1.075,1.795,1.737,�k��,1.6,��
2015/03/18,20:10,1.923,3.475,3.820,3.422,3.640,1.075,1.795,1.738,�k��,1.4,��
2015/03/18,20:20,1.922,3.472,3.820,3.425,3.640,1.073,1.795,1.738,�k��,1.4,��
2015/03/18,20:30,1.922,3.477,3.822,3.417,3.638,1.075,1.795,1.738,�k��,1.1,��
2015/03/18,20:40,1.918,3.475,3.820,3.420,3.645,1.073,1.793,1.740,�k��,0.9,��
2015/03/18,20:50,1.918,3.475,3.818,3.422,3.640,1.075,1.793,1.735,�k�k��,0.8,��
2015/03/18,21:00,1.920,3.475,3.820,3.418,3.637,1.073,1.797,1.737,-,CALM,��
2015/03/18,21:10,1.923,3.477,3.818,3.418,3.635,1.075,1.793,1.737,�k��,0.7,��
2015/03/18,21:20,1.923,3.475,3.818,3.418,3.638,1.073,1.798,1.733,-,CALM,��
2015/03/18,21:30,1.922,3.473,3.820,3.420,3.635,1.077,1.797,1.735,-,CALM,��
2015/03/18,21:40,1.920,3.472,3.820,3.422,3.638,1.077,1.797,1.735,�k,1.0,��
2015/03/18,21:50,1.920,3.475,3.815,3.418,3.637,1.075,1.797,1.733,-,CALM,��
2015/03/18,22:00,1.918,3.477,3.815,3.415,3.635,1.075,1.797,1.740,-,CALM,��
2015/03/18,22:10,1.922,3.473,3.813,3.418,3.640,1.078,1.795,1.737,�k��,0.5,��
2015/03/18,22:20,1.922,3.477,3.817,3.423,3.640,1.078,1.793,1.735,�k��,0.5,��
2015/03/18,22:30,1.923,3.473,3.818,3.425,3.642,1.078,1.793,1.737,�k�k��,0.5,��
2015/03/18,22:40,1.922,3.475,3.817,3.420,3.640,1.078,1.795,1.735,-,CALM,��
2015/03/18,22:50,1.922,3.475,3.820,3.417,3.637,1.075,1.797,1.737,-,CALM,��
2015/03/18,23:00,1.920,3.475,3.818,3.418,3.640,1.077,1.797,1.737,�k��,0.6,��
2015/03/18,23:10,1.922,3.478,3.813,3.417,3.637,1.077,1.793,1.737,�k��,1.1,��
2015/03/18,23:20,1.917,3.473,3.817,3.418,3.638,1.077,1.797,1.740,�k�k��,1.3,��
2015/03/18,23:30,1.922,3.472,3.815,3.417,3.635,1.078,1.795,1.738,�k�k��,1.6,��
2015/03/18,23:40,1.922,3.472,3.817,3.415,3.637,1.075,1.797,1.738,�k,2.0,��
2015/03/18,23:50,1.922,3.472,3.815,3.420,3.642,1.075,1.795,1.737,�k,2.4,��
